(431541) = 2007 TN399 = 2012 TT219

Discovered at Kitt Peak on 2007-10-15 by Spacewatch.

Orbit

Orbit type: Main Belt

Note: WebGL enabled browser required.

epoch2023-09-13.0
epoch JD2460200.5
perihelion date2020-01-24.60479
perihelion JD2458873.10479
argument of perihelion (°)125.93238
ascending node (°)20.98138
inclination (°)10.68482
eccentricity0.0415700
perihelion distance (AU)2.9524350
Tisserand w.r.t. Jupiter3.2
ΔV w.r.t. Earth (km/sec)11.2
semimajor axis (AU)3.0804912
mean anomaly (°)241.97703
mean daily motion (°/day)0.18229460
aphelion distance (AU)3.209
period (years)5.41
P-vector [x]-0.83282301
P-vector [y]0.42911145
P-vector [z]0.34967014
Q-vector [x]-0.54954395
Q-vector [y]-0.71671725
Q-vector [z]-0.42932252
absolute magnitude16.66
phase slope0.15
uncertainty0
referenceMPEC 2023-X62
observations used128
oppositions11
arc length (days)5894
first opposition used2007
last opposition used2023
residual rms (arc-secs)0.93
perturbers coarse indicatorM-v
perturbers precise indicator003Ek
first observation date used2007-10-15.0
last observation date used2023-12-04.0
computer nameMPCLINUX
Minimum Orbit Intersection Distances (in AU)
for orbit epoch: 2460200.5, reference: E2023-X62
Mercury2.57512
Venus2.23737
Earth1.97347
Mars1.30594
Jupiter1.77795
Saturn6.09202
Uranus15.4978
Neptune26.6857

Observations

132 total observations over interval: 2007 10 15.37262 – 2023 12 04.256946
These data are available for download (format description).

